Location: Unspecified
(51.0000°N, 12.0000°E)
Time: 06:26:12
(UTC+02:00)

OTV 5 (USA 277) - Pass Details

Date: 29 April 2019
Orbit: 310 x 325 km, 54.5° (Epoch: 08 May)

Event Time Altitude Azimuth Distance (km) Brightness Sun altitude
Rises 21:15:20 0° 258° (WSW) 2,036 ? -7.1°
Reaches altitude 10° 21:17:18 10° 263° (W) 1,207 ? -7.3°
Maximum altitude 21:19:57 55° 343° (NNW) 383 ? -7.7°
Drops below altitude 10° 21:22:35 10° 63° (ENE) 1,209 ? -8.0°
Enters shadow 21:24:29 - 68° (ENE) 2,008 ? -8.2°
